Regional Weather Roundup
Issued by NWS Green Bay, WI

Home | Current Version | Previous Version | Graphics & Text | Print | Product List | Glossary Off
Versions: 1 2 3 4 5 6 7 8 9 10 11 12 13 14 15 16 17 18 19 20 21 22 23 24 25 26 27 28 29 30 31 32 33 34 35 36 37 38 39 40 41 42 43 44 45 46 47 48 49 50

000
ASUS43 KGRB 200259
RWRGRB

NORTH-CENTRAL AND NORTHEAST WISCONSIN REGIONAL WEATHER ROUNDUP
NATIONAL WEATHER SERVICE GREEN BAY WI
900 PM CST FRI DEC 19 2014

WIZ005-009-010>012-018-019-200400-
NORTH CENTRAL WISCONSIN

CITY           SKY/WX    TMP DP  RH WIND       PRES   REMARKS
IRONWOOD       CLOUDY    23  19  86 S3        30.17S
MANITOWISH WTR NOT AVBL
ARBOR VITAE    NOT AVBL
EAGLE RIVER    NOT AVBL
LAND O LAKES   NOT AVBL
RHINELANDER    CLOUDY    18  16  92 CALM      30.20F
PHILLIPS       CLOUDY    22  20  93 S3        30.19F
ANTIGO         NOT AVBL
TOMAHAWK       NOT AVBL
MERRILL        NOT AVBL
$$

WIZ013-073-200400-
NORTHEAST WISCONSIN

CITY           SKY/WX    TMP DP  RH WIND       PRES   REMARKS
IRON MOUNTAIN  CLOUDY    13   9  84 CALM      30.22F
MARINETTE      CLEAR     18  16  93 CALM      30.26F
$$

WIZ017-030-035>037-045-200400-
CENTRAL WISCONSIN

CITY           SKY/WX    TMP DP  RH WIND       PRES   REMARKS
MEDFORD        NOT AVBL
WAUSAU         CLOUDY    23  19  85 CALM      30.21F
MOSINEE        CLOUDY    23  21  93 CALM      30.23F
MARSHFIELD     CLOUDY    24  20  84 SE5       30.21F
WISC RAPIDS    CLOUDY    23  18  81 CALM      30.25F
STEVENS POINT  NOT AVBL
WAUPACA        CLOUDY    26  20  80 CALM      30.26F
SHAWANO        CLEAR     24  19  82 CALM      30.26F
CLINTONVILLE   CLEAR     21  18  86 CALM      30.26F
$$

WIZ038-039-048-051-200400-
FOX VALLEY

CITY           SKY/WX    TMP DP  RH WIND       PRES   REMARKS
NWS GREEN BAY  CLEAR     25  21  85 CALM      30.27F
APPLETON       PTCLDY    21  18  86 CALM      30.25F
OSHKOSH        PTCLDY    24  17  74 CALM      30.25F
FOND DU LAC    MOCLDY    23  18  81 CALM      30.25F
$$

WIZ022-050-052-200400-
EAST CENTRAL WISCONSIN

CITY           SKY/WX    TMP DP  RH WIND       PRES   REMARKS
STURGEON BAY   CLEAR     21  18  86 CALM      30.28F
MANITOWOC      NOT AVBL
SHEBOYGAN      CLOUDY    28  21  75 N5        30.26F
$$

LMZ563-521-522-541>543-200400-
LAKESHORE

STATION/POSITION TIME  TEMP    WIND        PRES    VSBY  WAVE
                       AIR SEA DIR/SP/G                  HT/PER
                 (UTC) (F)     (DEG/KT/KT) (MB)    (MI)  (FT/S)
SHEBOYGAN LKSHOR 0200   29 34  310/  5/  6 1026.2F
KEWAUNEE LKSHORE 0200   28      CALM  /  1 1024.4F
ALGOMA MARINA    0200          300/  5/  7   N/A
TWO RIVERS CG    0200   28 36              1026.0          0
NORTHPORT PIER   0200   24     180/  1/  1 1025.7F
CHAMBERS ISLAND  0200   18      CALM  /  2 1025.4F
MENOMINEE LKSHOR 0200   26     210/  3/  3 1025.8F
$$


USA.gov is the U.S. government's official web portal to all federal, state and local government web resources and services.